STARLINK-36654

Last updated on Sun Mar 15 2026 00:02:07 GMT+0000 (Coordinated Universal Time)

1 67838U 26033T 26073.58335648 -.01943990 00000+0 -21191-1 0 9997 2 67838 42.9986 241.6502 0001427 279.4644 192.5855 15.65691390 5456
UTC large
Height (km)
Speed (km/s)
/
Latitude / Longitude
Inclination (degrees)
Orbital Period (minutes)
Azimuth
Elevation
Range (km)
Doppler Factor

Next 0 passes for location: London (51.5072 / 0.1276)

Sorry there are no passes over London.